Tracking 19908 objects as of 19-Oct-2019
HD Live streaming from Space Station
objects crossing your sky now

IRIDIUM 33 DEB

Track IRIDIUM 33 DEB now!
10-day predictions


NORAD ID: 39794
Int'l Code: 1997-051ABB
Perigee: 571.6 km
Apogee: 622.0 km
Inclination: 86.4 °
Period: 96.5 minutes
Semi major axis: 6967 km
RCS: 0.007 m2 (small)
Launch date: September 14, 1997
Source: United States (US)
Launch site: TYURATAM MISSILE AND SPACE COMPLEX (TTMTR)

Note: This is SATELLITE DEBRIS
aabbcc
Your satellite tracking list
Your tracking list is empty




NASA's NSSDC Master Catalog

Two Line Element Set (TLE):
1 39794U 97051ABB 18218.23357848 +.00007190 +00000-0 +68667-3 0  9997
2 39794 086.3567 036.8335 0036185 259.8511 114.1577 14.92645240047645
Source of the keplerian elements: AFSPC